Location: Roswell
(33.3943°N, 104.5230°W)
Time: 12:30:01
(UTC+00:00)

Courier 1B - All Passes

Search period start: 09 November 2024 00:00
Search period end: 19 November 2024 00:00
Orbit: 962 x 1208 km, 28.3° (Epoch: 09 November)

Date Brightness Start Highest point End Pass type
(mag) Time Alt. Az. Time Alt. Az. Time Alt. Az.
09 Nov - 01:15:01 10° W 01:21:26 56° S 01:28:11 10° ESE visible
09 Nov - 03:08:58 10° W 03:15:12 39° SSW 03:21:47 10° SE visible
09 Nov - 05:04:15 10° WSW 05:08:45 18° SSW 05:13:24 10° SSE night (unlit)
09 Nov - 20:36:30 10° SSW 20:40:40 18° SSE 20:44:50 10° ESE daylight
09 Nov - 22:28:01 10° SW 22:34:00 41° SSE 22:40:05 10° E daylight
10 Nov - 00:21:19 10° WSW 00:27:39 57° S 00:34:15 10° ESE visible
10 Nov - 02:15:08 10° W 02:21:24 45° SSW 02:28:02 10° ESE visible
10 Nov - 04:09:49 10° WSW 04:15:00 23° SSW 04:20:24 10° SSE visible
10 Nov - 19:44:10 10° S 19:47:02 13° SSE 19:49:54 10° SE daylight
10 Nov - 21:34:34 10° SW 21:40:19 34° SSE 21:46:06 10° E daylight
10 Nov - 23:27:37 10° WSW 23:33:54 55° S 23:40:21 10° E daylight
11 Nov - 01:21:21 10° W 01:27:38 50° S 01:34:13 10° ESE visible
11 Nov - 03:15:40 10° WSW 03:21:15 28° SSW 03:27:05 10° SE visible
11 Nov - 20:41:13 10° SW 20:46:40 28° SSE 20:52:03 10° ESE daylight
11 Nov - 22:33:56 10° WSW 22:40:10 51° S 22:46:27 10° E daylight
12 Nov - 00:27:35 10° W 00:33:52 54° S 00:40:23 10° ESE visible
12 Nov - 02:21:41 10° W 02:27:31 33° SSW 02:33:37 10° SE visible
12 Nov - 04:17:56 10° SW 04:20:57 13° SSW 04:24:03 10° S visible
12 Nov - 19:48:03 10° SSW 19:53:01 22° SSE 19:57:53 10° ESE daylight
12 Nov - 21:40:17 10° WSW 21:46:27 45° SSE 21:52:35 10° E daylight
12 Nov - 23:33:49 10° WSW 23:40:07 56° S 23:46:33 10° ESE daylight
13 Nov - 01:27:48 10° W 01:33:47 39° SSW 01:40:02 10° SE visible
13 Nov - 03:23:00 10° WSW 03:27:14 18° SSW 03:31:36 10° SSE visible
13 Nov - 18:55:08 10° SSW 18:59:21 17° SSE 19:03:29 10° ESE daylight
13 Nov - 20:46:41 10° SW 20:52:44 39° SSE 20:58:42 10° E daylight
13 Nov - 22:40:04 10° WSW 22:46:23 56° S 22:52:43 10° ESE daylight
14 Nov - 00:33:57 10° W 00:40:04 45° SSW 00:46:21 10° ESE visible
14 Nov - 02:28:37 10° WSW 02:33:33 22° SSW 02:38:38 10° SSE visible
14 Nov - 18:02:44 10° S 18:05:41 13° SSE 18:08:34 10° SE daylight
14 Nov - 19:53:08 10° SW 19:59:03 33° SSE 20:04:47 10° E daylight
14 Nov - 21:46:18 10° WSW 21:52:39 54° S 21:58:54 10° E daylight
14 Nov - 23:40:07 10° W 23:46:20 50° S 23:52:38 10° ESE daylight
15 Nov - 01:34:28 10° WSW 01:39:51 28° SSW 01:45:25 10° SE visible
15 Nov - 18:59:43 10° SW 19:05:21 28° SSE 19:10:48 10° ESE daylight
15 Nov - 20:52:31 10° WSW 20:58:54 50° S 21:05:07 10° E daylight
15 Nov - 22:46:18 10° W 22:52:37 54° S 22:58:54 10° ESE daylight
16 Nov - 00:40:28 10° W 00:46:11 34° SSW 00:52:01 10° SE visible
16 Nov - 02:36:41 10° SW 02:39:31 13° SSW 02:42:24 10° S visible
16 Nov - 18:06:27 10° SSW 18:11:39 22° SSE 18:16:39 10° ESE daylight
16 Nov - 19:58:47 10° WSW 20:05:10 45° SSE 20:11:19 10° E daylight
16 Nov - 21:52:27 10° WSW 21:58:52 56° S 22:05:10 10° ESE daylight
16 Nov - 23:46:32 10° W 23:52:30 40° SSW 23:58:30 10° SE daylight
17 Nov - 01:41:46 10° WSW 01:45:52 17° SSW 01:50:02 10° SSE visible
17 Nov - 17:13:27 10° SSW 17:17:56 18° SSE 17:22:16 10° ESE daylight
17 Nov - 19:05:05 10° SW 19:11:25 39° SSE 19:17:29 10° E daylight
17 Nov - 20:58:35 10° WSW 21:05:07 56° S 21:11:25 10° ESE daylight
17 Nov - 22:52:37 10° W 22:58:48 46° SSW 23:04:56 10° ESE daylight
18 Nov - 00:47:21 10° WSW 00:52:13 23° SSW 00:57:09 10° SSE visible
18 Nov - 16:21:00 10° S 16:24:12 13° SSE 16:27:20 10° SE daylight
18 Nov - 18:11:27 10° SW 18:17:40 34° SSE 18:23:36 10° E daylight
18 Nov - 20:04:43 10° WSW 20:11:21 54° S 20:17:41 10° E daylight
18 Nov - 21:58:42 10° W 22:05:05 51° S 22:11:18 10° ESE daylight
